Terminal Aerodrome Forecast
Issued by NWS

Home | Current Version | Previous Version | Text Only | Print | Product List | Glossary On
Versions: 1 2 3 4 5 6 7 8 9 10 11 12 13 14 15 16 17 18 19 20 21 22 23 24 25 26 27 28
000
FTUS42 KFFC 221651 AAB
TAFPDK
TAF AMD
KPDK 221651Z 2217/2312 09008KT 4SM -DZ BR OVC006
      TEMPO 2217/2220 2SM -DZ BR
     FM230000 09011KT 5SM -DZ BR OVC004 PROB30 2308/2312 1SM -RA BR
      OVC004=

USA.gov is the U.S. government's official web portal to all federal, state and local government web resources and services.